Regional Weather Roundup
Issued by NWS Green Bay, WI

Home | Current Version | Previous Version | Text Only | Print | Product List | Glossary On
Versions: 1 2 3 4 5 6 7 8 9 10 11 12 13 14 15 16 17 18 19 20 21 22 23 24 25 26 27 28 29 30 31 32 33 34 35 36 37 38 39 40 41 42 43 44 45 46 47 48 49 50
000
ASUS43 KGRB 020210
RWRGRB

NORTH-CENTRAL AND NORTHEAST WISCONSIN REGIONAL WEATHER ROUNDUP
NATIONAL WEATHER SERVICE GREEN BAY WI
900 PM CDT WED OCT 01 2014

WIZ005-009-010>012-018-019-020300-
NORTH CENTRAL WISCONSIN

CITY           SKY/WX    TMP DP  RH WIND       PRES   REMARKS
IRONWOOD       NOT AVBL
MANITOWISH WTR CLOUDY    53  53 100 S6        29.86S FOG
ARBOR VITAE    CLOUDY    57  55  94 S5        29.87S FOG
EAGLE RIVER    CLOUDY    53  53  99 S3        29.88R FOG
LAND O LAKES   CLOUDY    54  52  94 S5        29.89S FOG
RHINELANDER    CLOUDY    55  52  89 S7        29.89S
PHILLIPS       CLOUDY    54  53  97 S6        29.86S
ANTIGO         CLOUDY    53  51  95 SE10      29.90S
TOMAHAWK       CLOUDY    55  52  88 CALM      29.88R
MERRILL        CLOUDY    56  54  91 SE6       29.88R
$$

WIZ013-073-020300-
NORTHEAST WISCONSIN

CITY           SKY/WX    TMP DP  RH WIND       PRES   REMARKS
IRON MOUNTAIN  CLOUDY    53  50  89 SE12      29.91S
MARINETTE      NOT AVBL
OCONTO         CLOUDY    55  52  90 S5        29.93F
$$

WIZ017-030-035>037-045-020300-
CENTRAL WISCONSIN

CITY           SKY/WX    TMP DP  RH WIND       PRES   REMARKS
MEDFORD        CLOUDY    56  53  92 SE5       29.86S
WAUSAU         LGT RAIN  57  52  83 SE9       29.88R
MOSINEE        CLOUDY    55  54  94 SE13      29.89R
MARSHFIELD     CLOUDY    58  55  90 SE7       29.86S
WISC RAPIDS    CLOUDY    60  54  80 SE7       29.88S
STEVENS POINT  CLOUDY    56  51  83 E8        29.89S
WAUPACA        CLOUDY    59  53  79 E8        29.91R
SHAWANO        CLOUDY    57  52  84 SE6       29.92S
CLINTONVILLE   CLOUDY    55  50  82 SE5       29.91S
$$

WIZ038-039-048-051-020300-
FOX VALLEY

CITY           SKY/WX    TMP DP  RH WIND       PRES   REMARKS
NWS GREEN BAY  CLOUDY    56  52  86 SE9       29.93F
APPLETON       CLOUDY    57  52  82 SE12      29.92S
OSHKOSH        CLOUDY    58  53  84 SE8       29.90F
FOND DU LAC    CLOUDY    58  52  80 SE10      29.90F
$$

WIZ022-050-052-020300-
EAST CENTRAL WISCONSIN

CITY           SKY/WX    TMP DP  RH WIND       PRES   REMARKS
STURGEON BAY   NOT AVBL
MANITOWOC      NOT AVBL
SHEBOYGAN      CLOUDY    57  53  86 SE5       29.94S
$$

LMZ563-521-522-541>543-020300-
LAKESHORE

STATION/POSITION TIME  TEMP    WIND        PRES    VSBY  WAVE
                       AIR SEA DIR/SP/G                  HT/PER
                 (UTC) (F)     (DEG/KT/KT) (MB)    (MI)  (FT/S)
SHEBOYGAN LKSHOR 0200   57 57  150/  7/  8 1014.0F
KEWAUNEE LKSHORE 0100   55     180/  8/  9 1013.3S
NORTHPORT PIER   0200   56     150/  6/ 10 1014.2F
N MID LAKE BUOY  0200   56 58  180/ 10/ 12 1014.6S         1/ 4
S GREEN BAY BUOY 0100   56     VRB 12/ 14  1014.8R
CHAMBERS ISLAND  0200   55     150/  4/  9 1014.2S
MENOMINEE LKSHOR 0100   56     160/ 15/ 17 1014.2F
$$


USA.gov is the U.S. government's official web portal to all federal, state and local government web resources and services.